Chadron, NE

8:37 PM MDT on April 30, 2017 (GMT -0600)
Chadron Municipal

Weather History for KCDR - February, 2014

Change the Weather History Date:

Saturday, February 1, 2014

  Actual Average Record
Temperature  
Mean Temperature 8 °F 25 °F  
Max Temperature 20 °F 39 °F 67 °F (2003)
Min Temperature -4 °F 11 °F -31 °F (1917)
Degree Days  
Heating Degree Days 57 40  
Month to date heating degree days 57 40  
Since 1 July heating degree days 4249 4239  
Cooling Degree Days 0 0  
Month to date cooling degree days 0 0  
Year to date cooling degree days 0 0  
Moisture  
Dew Point 7 °F    
Average Humidity 71    
Maximum Humidity 92    
Minimum Humidity 49    
Precipitation  
Precipitation T in 0.02 in 0.39 in (1939)
Month to date precipitation T 0.02  
Year to date precipitation 0.17 0.38  
Sea Level Pressure  
Sea Level Pressure 30.15 in    
Wind  
Wind Speed 6 mph (NE)    
Max Wind Speed 14 mph    
Max Gust Speed 18 mph    
Visibility 5 miles    
Events Fog , Snow    
T = Trace of Precipitation, MM = Missing Value Source: NWS Daily Summary

Daily Weather History Graph

Daily Weather History Graph

Search for Another Location

Airport or City:

Trip Planner

Search our weather history database for the weather conditions in past years. The results will help you decide how hot, cold, wet, or windy it might be!

Date:

Astronomy

Feb. 01, 2014 Rise Set
Actual Time 7:06 AM MST 5:05 PM MST
Civil Twilight 6:36 AM MST 5:35 PM MST
Nautical Twilight 6:03 AM MST 6:09 PM MST
Astronomical Twilight 5:29 AM MST 6:42 PM MST
Moon 7:53 AM MST 7:48 PM MST
Length of Visible Light 10h 58m
Length of Day
9h 58m
Waxing Crescent, 5% of the Moon is Illuminated
Feb 1
Waxing Crescent
Feb 6
First Quarter
Feb 14
Full
Feb 22
Last Quarter
Mar 1
New

Hourly Weather History & Observations

Time (MST) Temp. Windchill Dew Point Humidity Pressure Visibility Wind Dir Wind Speed Gust Speed Precip Events Conditions
12:53 AM 19.0 °F - 16.0 °F 88% 29.98 in 10.0 mi Calm Calm - N/A   Mostly Cloudy
1:53 AM 19.0 °F 7.5 °F 12.9 °F 77% 30.00 in 10.0 mi NE 10.4 mph - N/A   Overcast
2:53 AM 17.1 °F 5.8 °F 9.0 °F 71% 30.03 in 10.0 mi NE 9.2 mph - N/A   Overcast
3:53 AM 16.0 °F 2.9 °F 9.0 °F 74% 30.07 in 10.0 mi NE 11.5 mph - N/A   Overcast
4:53 AM 12.9 °F 1.6 °F 8.1 °F 81% 30.10 in 10.0 mi NE 8.1 mph - N/A   Overcast
5:53 AM 12.9 °F 0.7 °F 7.0 °F 77% 30.13 in 10.0 mi NE 9.2 mph - N/A   Overcast
6:40 AM 12.2 °F 1.7 °F 6.8 °F 79% 29.99 in 1.8 mi NE 6.9 mph - 0.00 in Snow Light Snow
6:53 AM 12.0 °F 1.5 °F 7.0 °F 80% 30.17 in 2.0 mi ENE 6.9 mph - 0.00 in Snow Light Snow
7:23 AM 12.2 °F 1.7 °F 8.6 °F 85% 30.01 in 1.5 mi ENE 6.9 mph - 0.00 in Snow Light Snow
7:50 AM 12.2 °F 2.9 °F 8.6 °F 85% 30.02 in 0.8 mi ENE 5.8 mph - 0.00 in Snow Light Snow
7:53 AM 12.0 °F 2.7 °F 8.1 °F 84% 30.19 in 0.8 mi ENE 5.8 mph - 0.00 in Snow Light Snow
8:02 AM 12.2 °F 2.9 °F 8.6 °F 85% 30.02 in 1.5 mi NE 5.8 mph - 0.00 in Snow Light Snow
8:40 AM 12.2 °F 4.3 °F 8.6 °F 85% 30.04 in 2.0 mi NE 4.6 mph - 0.00 in Snow Light Snow
8:47 AM 12.2 °F 4.3 °F 8.6 °F 85% 30.04 in 1.8 mi ENE 4.6 mph - 0.00 in Snow Light Snow
8:53 AM 12.9 °F 6.9 °F 8.1 °F 81% 30.22 in 0.8 mi ENE 3.5 mph - 0.00 in Snow Light Snow
9:14 AM 12.2 °F 6.1 °F 8.6 °F 85% 30.06 in 0.2 mi East 3.5 mph - 0.00 in Fog , Snow Snow
9:33 AM 14.0 °F - 8.6 °F 79% 30.06 in 0.5 mi Calm Calm - 0.00 in Snow Snow
9:53 AM 14.0 °F - 9.0 °F 80% 30.24 in 0.8 mi Calm Calm - 0.00 in Snow Light Snow
10:53 AM 15.1 °F - 10.0 °F 80% 30.26 in 1.0 mi Calm Calm - 0.00 in Snow Light Snow
11:11 AM 15.8 °F 10.2 °F 8.6 °F 73% 30.08 in 2.5 mi NNE 3.5 mph - 0.00 in Snow Light Snow
11:16 AM 15.8 °F 10.2 °F 8.6 °F 73% 30.08 in 3.0 mi NE 3.5 mph - 0.00 in   Haze
11:23 AM 15.8 °F 4.2 °F 8.6 °F 73% 30.08 in 1.8 mi NE 9.2 mph - 0.00 in Snow Light Snow
11:29 AM 15.8 °F 5.1 °F 10.4 °F 79% 30.08 in 0.8 mi NE 8.1 mph - 0.00 in Snow Light Snow
11:53 AM 14.0 °F 6.5 °F 8.1 °F 77% 30.26 in 1.5 mi NE 4.6 mph - 0.00 in Snow Light Snow
12:24 PM 14.0 °F 5.1 °F 8.6 °F 79% 30.07 in 0.8 mi East 5.8 mph - 0.00 in Snow Light Snow
12:41 PM 15.8 °F 10.2 °F 8.6 °F 73% 30.06 in 1.2 mi ENE 3.5 mph - 0.00 in Snow Light Snow
12:53 PM 16.0 °F 10.4 °F 10.0 °F 77% 30.23 in 1.2 mi Variable 3.5 mph - 0.00 in Snow Light Snow
1:06 PM 15.8 °F 10.2 °F 10.4 °F 79% 30.06 in 2.5 mi East 3.5 mph - 0.00 in Snow Light Snow
1:15 PM 15.8 °F - 10.4 °F 79% 30.06 in 3.0 mi Calm Calm - 0.00 in Snow Light Snow
1:31 PM 15.8 °F - 10.4 °F 79% 30.06 in 7.0 mi Calm Calm - 0.00 in   Overcast
1:41 PM 15.8 °F - 10.4 °F 79% 30.05 in 10.0 mi Calm Calm - 0.00 in   Overcast
1:53 PM 17.1 °F - 10.0 °F 74% 30.23 in 10.0 mi Calm Calm - 0.00 in   Overcast
2:53 PM 19.0 °F - 9.0 °F 65% 30.24 in 10.0 mi Calm Calm - N/A   Partly Cloudy
3:53 PM 19.9 °F 8.6 °F 3.9 °F 50% 30.25 in 10.0 mi NW 10.4 mph - N/A   Mostly Cloudy
4:53 PM 17.1 °F 8.7 °F 5.0 °F 59% 30.28 in 10.0 mi NW 5.8 mph - N/A   Mostly Cloudy
5:53 PM 12.9 °F 3.8 °F 1.9 °F 62% 30.31 in 10.0 mi NW 5.8 mph - N/A   Scattered Clouds
6:53 PM 8.1 °F -4.3 °F -0.0 °F 70% 30.35 in 10.0 mi West 8.1 mph - N/A   Clear
7:53 PM 3.9 °F -9.4 °F -2.0 °F 76% 30.36 in 10.0 mi WSW 8.1 mph - N/A   Clear
8:53 PM 1.0 °F -10.3 °F -2.9 °F 83% 30.37 in 10.0 mi SW 5.8 mph - N/A   Clear
9:53 PM -0.0 °F -13.0 °F -4.0 °F 83% 30.37 in 10.0 mi SW 6.9 mph - N/A   Clear
10:53 PM -0.0 °F -13.0 °F -4.0 °F 83% 30.36 in 10.0 mi West 6.9 mph - N/A   Clear
11:53 PM -0.0 °F -7.9 °F -5.1 °F 79% 30.35 in 10.0 mi SW 3.5 mph - N/A   Clear